Claremore, OK

9:19 PM CDT on September 25, 2017 (GMT -0500)
Claremore Regional

Weather History for KGCM - October, 2013

Change the Weather History Date:

Monday, October 14, 2013

  Actual Average (KTUL) Record (KTUL)
Temperature  
Mean Temperature 62 °F -  
Max Temperature 64 °F 76 °F 92 °F (1963)
Min Temperature 59 °F 52 °F 33 °F (2002)
Degree Days  
Heating Degree Days 4    
Growing Degree Days 12 (Base 50)    
Moisture  
Dew Point 57 °F    
Average Humidity 86    
Maximum Humidity 100    
Minimum Humidity 72    
Precipitation  
Precipitation 0.71 in - - ()
Sea Level Pressure  
Sea Level Pressure 30.10 in    
Wind  
Wind Speed 8 mph (SE)    
Max Wind Speed 15 mph    
Max Gust Speed 21 mph    
Visibility 8 miles    
Events Rain    
Averages and records for this station are not official NWS values.
T = Trace of Precipitation, MM = Missing Value Source: NWS Daily Summary

Daily Weather History Graph

Daily Weather History Graph

Search for Another Location

Airport or City:

Trip Planner

Search our weather history database for the weather conditions in past years. The results will help you decide how hot, cold, wet, or windy it might be!

Date:

Astronomy

Oct. 14, 2013 Rise Set
Actual Time 7:28 AM CDT 6:46 PM CDT
Civil Twilight 7:02 AM CDT 7:12 PM CDT
Nautical Twilight 6:32 AM CDT 7:42 PM CDT
Astronomical Twilight 6:02 AM CDT 8:12 PM CDT
Moon 4:10 PM CDT (10/14) 2:53 AM CDT (10/14)
Length of Visible Light 12h 10m
Length of Day
11h 18m
Waxing Gibbous, 79% of the Moon is Illuminated
Oct 14
Waxing Gibbous
Oct 18
Full
Oct 26
Last Quarter
Nov 3
New
Nov 9
First Quarter

Hourly Weather History & Observations

Time (CDT) Temp. Dew Point Humidity Pressure Visibility Wind Dir Wind Speed Gust Speed Precip Events Conditions
12:15 AM 62.6 °F 55.4 °F 77% 30.25 in 10.0 mi East 5.8 mph - N/A   Overcast
12:35 AM 62.6 °F 55.4 °F 77% 30.25 in 10.0 mi East 5.8 mph - N/A   Mostly Cloudy
12:55 AM 62.6 °F 55.4 °F 77% 30.23 in 10.0 mi East 6.9 mph - N/A   Scattered Clouds
1:15 AM 62.6 °F 53.6 °F 72% 30.23 in 10.0 mi East 6.9 mph - N/A   Clear
1:35 AM 62.6 °F 53.6 °F 72% 30.23 in 10.0 mi East 8.1 mph - N/A   Clear
1:55 AM 62.6 °F 53.6 °F 72% 30.23 in 10.0 mi ESE 5.8 mph - N/A   Clear
2:15 AM 60.8 °F 53.6 °F 77% 30.23 in 10.0 mi East 4.6 mph - N/A   Clear
2:35 AM 60.8 °F 53.6 °F 77% 30.23 in 10.0 mi East 4.6 mph - N/A   Clear
2:55 AM 60.8 °F 53.6 °F 77% 30.23 in 10.0 mi ESE 6.9 mph - N/A   Clear
3:15 AM 60.8 °F 53.6 °F 77% 30.22 in 10.0 mi East 5.8 mph - N/A   Clear
3:35 AM 60.8 °F 53.6 °F 77% 30.21 in 10.0 mi East 5.8 mph - N/A   Clear
3:55 AM 60.8 °F 53.6 °F 77% 30.20 in 10.0 mi East 8.1 mph - N/A   Clear
4:15 AM 60.8 °F 53.6 °F 77% 30.19 in 10.0 mi ESE 8.1 mph - N/A   Clear
4:35 AM 60.8 °F 53.6 °F 77% 30.19 in 10.0 mi ESE 8.1 mph - N/A   Clear
4:55 AM 59.0 °F 53.6 °F 82% 30.18 in 10.0 mi ESE 8.1 mph - N/A   Clear
5:15 AM 59.0 °F 53.6 °F 82% 30.19 in 10.0 mi ESE 6.9 mph - N/A   Clear
5:35 AM 59.0 °F 53.6 °F 82% 30.17 in 10.0 mi ESE 8.1 mph - N/A   Clear
5:55 AM 60.8 °F 53.6 °F 77% 30.18 in 10.0 mi ESE 6.9 mph - N/A   Clear
6:15 AM 60.8 °F 53.6 °F 77% 30.18 in 10.0 mi ESE 5.8 mph - N/A   Scattered Clouds
6:35 AM 60.8 °F 53.6 °F 77% 30.19 in 10.0 mi ESE 5.8 mph - N/A   Overcast
6:55 AM 60.8 °F 53.6 °F 77% 30.19 in 10.0 mi ESE 5.8 mph - N/A Rain Light Rain
7:15 AM 60.8 °F 51.8 °F 72% 30.19 in 10.0 mi ESE 5.8 mph - N/A   Light Drizzle
7:35 AM 60.8 °F 51.8 °F 72% 30.18 in 10.0 mi SE 5.8 mph - N/A   Overcast
7:55 AM 60.8 °F 51.8 °F 72% 30.18 in 10.0 mi SE 5.8 mph - N/A   Overcast
8:15 AM 60.8 °F 51.8 °F 72% 30.18 in 10.0 mi ESE 5.8 mph - N/A   Overcast
8:35 AM 60.8 °F 51.8 °F 72% 30.17 in 10.0 mi ESE 8.1 mph - N/A   Mostly Cloudy
8:55 AM 60.8 °F 51.8 °F 72% 30.16 in 10.0 mi ESE 9.2 mph - N/A   Mostly Cloudy
9:15 AM 60.8 °F 51.8 °F 72% 30.16 in 10.0 mi ESE 8.1 mph - N/A   Mostly Cloudy
9:35 AM 60.8 °F 51.8 °F 72% 30.17 in 10.0 mi ESE 8.1 mph - N/A Rain Rain
9:55 AM 60.8 °F 51.8 °F 72% 30.16 in 10.0 mi ESE 5.8 mph - N/A   Light Drizzle
10:15 AM 60.8 °F 51.8 °F 72% 30.17 in 7.0 mi SE 5.8 mph - 0.01 in Rain Rain
10:35 AM 59.0 °F 53.6 °F 82% 30.16 in 5.0 mi ESE 4.6 mph - 0.08 in Rain Rain
10:55 AM 59.0 °F 53.6 °F 82% 30.16 in 10.0 mi ESE 5.8 mph - 0.09 in Rain Light Rain
11:15 AM 59.0 °F 55.4 °F 88% 30.15 in 10.0 mi ESE 6.9 mph - N/A Rain Rain
11:35 AM 59.0 °F 55.4 °F 88% 30.14 in 10.0 mi ESE 6.9 mph - N/A Rain Light Rain
11:55 AM 59.0 °F 55.4 °F 88% 30.13 in 10.0 mi ESE 8.1 mph - 0.01 in Rain Light Rain
12:15 PM 60.8 °F 55.4 °F 82% 30.12 in 10.0 mi ESE 11.5 mph - 0.01 in Rain Rain
12:35 PM 60.8 °F 55.4 °F 82% 30.11 in 7.0 mi ESE 12.7 mph - 0.02 in Rain Light Rain
12:55 PM 60.8 °F 57.2 °F 88% 30.10 in 7.0 mi ESE 10.4 mph - 0.04 in Rain Light Rain
1:15 PM 60.8 °F 57.2 °F 88% 30.09 in 5.0 mi ESE 8.1 mph - 0.02 in Rain Rain
1:35 PM 60.8 °F 59.0 °F 94% 30.08 in 4.0 mi SE 8.1 mph - 0.06 in Rain Heavy Rain
1:55 PM 60.8 °F 59.0 °F 94% 30.07 in 7.0 mi SE 6.9 mph - 0.07 in Rain Light Rain
2:15 PM 60.8 °F 59.0 °F 94% 30.06 in 5.0 mi SE 5.8 mph - 0.01 in Rain Rain
2:35 PM 60.8 °F 59.0 °F 94% 30.04 in 5.0 mi SE 8.1 mph - 0.03 in Rain Rain
2:55 PM 62.6 °F 60.8 °F 94% 30.03 in 5.0 mi SE 9.2 mph - 0.04 in Rain Light Rain
3:15 PM 62.6 °F 60.8 °F 94% 30.03 in 5.0 mi SE 9.2 mph - N/A Rain Rain
3:35 PM 62.6 °F 60.8 °F 94% 30.02 in 4.0 mi SE 8.1 mph - 0.01 in Rain Rain
3:55 PM 62.6 °F 60.8 °F 94% 30.02 in 3.0 mi ESE 6.9 mph - 0.07 in Rain Rain
4:15 PM 60.8 °F 60.8 °F 100% 30.02 in 1.8 mi SE 5.8 mph - 0.11 in Rain Heavy Rain
4:35 PM 60.8 °F 60.8 °F 100% 30.01 in 2.0 mi SE 8.1 mph - 0.18 in Rain Rain
4:55 PM 60.8 °F 60.8 °F 100% 30.00 in 1.5 mi SE 12.7 mph - 0.31 in Rain Heavy Rain
5:15 PM 60.8 °F 60.8 °F 100% 30.00 in 3.0 mi ESE 6.9 mph - 0.06 in Rain Rain
5:35 PM 60.8 °F 60.8 °F 100% 29.99 in 4.0 mi SE 10.4 mph - 0.06 in Rain Rain
5:55 PM 62.6 °F 60.8 °F 94% 29.99 in 4.0 mi SE 8.1 mph - 0.07 in   Drizzle
6:15 PM 62.6 °F 60.8 °F 94% 29.98 in 4.0 mi SE 9.2 mph - N/A   Heavy Drizzle
6:35 PM 62.6 °F 60.8 °F 94% 29.99 in 3.0 mi SE 11.5 mph - N/A   Drizzle
6:55 PM 62.6 °F 60.8 °F 94% 29.98 in 4.0 mi SSE 12.7 mph 16.1 mph N/A   Light Drizzle
7:15 PM 62.6 °F 62.6 °F 100% 29.98 in 5.0 mi SSE 13.8 mph 20.7 mph N/A   Overcast
7:35 PM 62.6 °F 62.6 °F 100% 29.98 in 7.0 mi SSE 13.8 mph 20.7 mph N/A   Overcast
7:55 PM 62.6 °F 62.6 °F 100% 29.98 in 10.0 mi SSE 15.0 mph 19.6 mph N/A   Overcast
8:15 PM 62.6 °F 62.6 °F 100% 29.98 in 5.0 mi SSE 12.7 mph 17.3 mph N/A Rain Rain
8:35 PM 62.6 °F 60.8 °F 94% 29.98 in 7.0 mi SSE 15.0 mph 20.7 mph N/A   Overcast
8:55 PM 62.6 °F 60.8 °F 94% 29.98 in 10.0 mi SSE 12.7 mph - N/A   Overcast
9:15 PM 62.6 °F 62.6 °F 100% 29.98 in 10.0 mi SSE 13.8 mph 18.4 mph N/A   Overcast
9:35 PM 62.6 °F 62.6 °F 100% 29.98 in 10.0 mi SSE 12.7 mph 17.3 mph N/A   Overcast
9:55 PM 62.6 °F 62.6 °F 100% 29.98 in 10.0 mi SSE 15.0 mph 19.6 mph N/A   Mostly Cloudy
10:15 PM 62.6 °F 62.6 °F 100% 29.98 in 10.0 mi SSE 13.8 mph 17.3 mph N/A   Mostly Cloudy
10:35 PM 64.4 °F 62.6 °F 94% 29.98 in 10.0 mi SSE 15.0 mph 19.6 mph N/A   Overcast
10:55 PM 64.4 °F 62.6 °F 94% 29.97 in 7.0 mi SSE 12.7 mph 19.6 mph N/A   Drizzle
11:15 PM 62.6 °F 62.6 °F 100% 29.98 in 5.0 mi SSE 11.5 mph 17.3 mph 0.01 in Rain Light Rain
11:35 PM 62.6 °F 62.6 °F 100% 29.96 in 7.0 mi South 12.7 mph 17.3 mph 0.01 in   Light Drizzle
11:55 PM 64.4 °F 62.6 °F 94% 29.95 in 7.0 mi South 12.7 mph 16.1 mph 0.01 in   Overcast